EW5186 Weather Reports


time (UTC)temp
F
wind
direction
speed
knots
gust
knots
rain 1hr
in
rain 24hr
in
rain mn
in
humidity
%
barometer
mb
20240614131518 75 58 0.9 4.3 0.00 0.00 0.00 76 1013.5
20240614130008 74 250 0.9 4.3 0.00 0.00 0.00 76 1013.7
20240614124559 74 138 0.0 5.2 0.00 0.00 0.00 76 1013.9
20240614123052 73 342 0.9 5.2 0.00 0.00 0.00 77 1013.9
20240614121601 73 136 0.9 4.3 0.00 0.00 0.00 77 1014.1
20240614120055 73 194 0.9 2.6 0.00 0.00 0.00 78 1014.2
20240614114547 72 124 0.9 7.0 0.00 0.00 0.00 79 1014.1
20240614113044 72 259 0.0 4.3 0.00 0.00 0.00 79 1013.9
20240614111541 71 207 0.9 6.1 0.00 0.00 0.00 81 1013.7
20240614110100 70 27 0.0 3.5 0.00 0.00 0.00 83 1013.6
20240614104524 68 127 0.9 3.5 0.00 0.00 0.00 84 1013.5
20240614103015 66 118 0.0 2.6 0.00 0.00 0.00 88 1014.0
20240614101606 65 216 0.0 1.7 0.00 0.00 0.00 88 1013.7
20240614100056 65 162 0.0 3.5 0.00 0.00 0.00 88 1013.7
20240614094546 64 115 0.0 1.7 0.00 0.00 0.00 89 1013.6
20240614093035 64 89 0.0 1.7 0.00 0.00 0.00 89 1013.8
20240614091518 64 164 0.0 0.9 0.00 0.00 0.00 89 1014.0
20240614090017 65 309 0.0 2.6 0.00 0.00 0.00 88 1013.9
20240614084603 65 100 0.0 1.7 0.00 0.00 0.00 88 1013.9
20240614083104 65 6 0.0 1.7 0.00 0.00 0.00 88 1013.9
20240614081540 65 285 0.0 3.5 0.00 0.00 0.00 88 1013.8
20240614080039 64 56 0.0 2.6 0.00 0.00 0.00 88 1013.7
20240614074539 64 173 0.0 2.6 0.00 0.00 0.00 89 1013.7
20240614073025 64 182 0.0 2.6 0.00 0.00 0.00 88 1014.0
20240614071522 64 179 0.0 1.7 0.00 0.00 0.00 88 1014.1
20240614070020 64 89 0.0 1.7 0.00 0.00 0.00 88 1014.1
20240614064519 65 198 0.0 1.7 0.00 0.00 0.00 88 1014.3
20240614063018 65 82 0.0 0.9 0.00 0.00 0.00 87 1014.4
20240614061516 65 108 0.0 1.7 0.00 0.00 0.00 87 1014.6
20240614060023 65 97 0.0 0.9 0.00 0.00 0.00 86 1014.7
20240614054555 65 253 0.0 0.0 0.00 0.00 0.00 86 1014.7
20240614053053 65 127 0.0 1.7 0.00 0.00 0.00 85 1015.1
20240614051534 65 230 0.0 2.6 0.00 0.00 0.00 85 1015.3
20240614050033 65 121 0.0 2.6 0.00 0.00 0.00 84 1015.4
20240614044531 65 86 0.0 1.7 0.00 0.00 0.00 84 1015.5
20240614043019 65 104 0.0 3.5 0.00 0.00 0.00 84 1015.6
20240614041515 65 94 0.0 2.6 0.00 0.00 0.00 84 1015.8
20240614040014 65 140 0.0 1.7 0.00 0.00 0.00 84 1016.0
20240614034513 65 141 0.0 2.6 0.00 0.00 0.00 84 1016.1
20240614033013 66 222 0.0 1.7 0.00 0.00 0.00 84 1016.1
20240614031526 66 134 0.0 2.6 0.00 0.00 0.00 83 1016.1
20240614030015 66 106 0.0 0.9 0.00 0.00 0.00 82 1016.1
20240614024557 66 91 0.0 1.7 0.00 0.00 0.00 82 1016.1
20240614023107 66 85 0.0 0.9 0.00 0.00 0.00 82 1016.3
20240614021536 67 77 0.0 1.7 0.00 0.00 0.00 81 1016.5
20240614020036 67 163 0.0 0.9 0.00 0.00 0.00 80 1016.7
20240614014517 68 214 0.0 0.9 0.00 0.00 0.00 79 1016.8
20240614013017 68 216 0.0 1.7 0.00 0.00 0.00 77 1016.7
20240614011504 69 160 0.9 3.5 0.00 0.00 0.00 75 1016.6
20240614010004 70 172 0.0 3.5 0.00 0.00 0.00 73 1016.7
20240614004503 71 269 0.0 4.3 0.00 0.00 0.00 70 1016.5
20240614003002 72 174 0.0 4.3 0.00 0.00 0.00 68 1016.4
20240614001506 72 115 0.0 3.5 0.00 0.00 0.00 66 1016.6
20240614000115 73 127 0.0 4.3 0.00 0.00 0.00 65 1016.5
20240613234604 74 189 0.0 4.3 0.00 0.00 0.00 63 1016.5
20240613233100 75 110 0.0 5.2 0.00 0.00 0.00 62 1016.4
20240613231543 76 64 1.7 7.8 0.00 0.00 0.00 60 1016.4
20240613230043 77 278 0.0 3.5 0.00 0.00 0.00 60 1016.2
20240613224523 78 73 0.0 6.1 0.00 0.00 0.00 59 1016.1
20240613223122 79 203 0.9 6.1 0.00 0.00 0.00 56 1016.2
20240613221512 80 159 0.0 5.2 0.00 0.00 0.00 57 1016.0
20240613220010 80 257 0.0 4.3 0.00 0.00 0.00 55 1015.8
20240613214510 80 317 0.9 6.1 0.00 0.00 0.00 56 1015.8
20240613213011 81 231 2.6 11.3 0.00 0.00 0.00 53 1015.8
20240613211508 81 283 1.7 9.6 0.00 0.00 0.00 55 1015.9
20240613210007 81 25 0.9 7.8 0.00 0.00 0.00 52 1015.8
20240613204506 81 134 1.7 9.6 0.00 0.00 0.00 55 1016.0
20240613203005 81 56 1.7 7.0 0.00 0.00 0.00 55 1016.0
20240613201505 82 235 0.9 6.1 0.00 0.00 0.00 58 1016.0
20240613200105 82 197 0.9 7.8 0.00 0.00 0.00 55 1016.2
20240613194559 82 144 1.7 7.8 0.00 0.00 0.00 59 1016.3
20240613193047 82 280 1.7 9.6 0.00 0.00 0.00 59 1016.4
20240613191547 82 176 1.7 4.3 0.00 0.00 0.00 58 1016.4
20240613190047 83 162 0.9 4.3 0.00 0.00 0.00 54 1016.6
20240613184547 83 236 0.9 7.0 0.00 0.00 0.00 53 1016.6
20240613183052 83 49 0.9 4.3 0.00 0.00 0.00 52 1016.5
20240613181542 83 41 0.0 5.2 0.00 0.00 0.00 49 1016.7
20240613180040 82 203 1.7 6.1 0.00 0.00 0.00 57 1016.7
20240613174544 82 112 0.0 4.3 0.00 0.00 0.00 51 1016.8
20240613173023 82 118 0.0 3.5 0.00 0.00 0.00 56 1016.8
20240613171523 82 69 0.9 7.0 0.00 0.00 0.00 58 1017.0
20240613170101 82 221 0.0 5.2 0.00 0.00 0.00 60 1017.0
20240613164600 81 162 0.0 2.6 0.00 0.00 0.00 61 1017.1
20240613163043 82 152 1.7 6.1 0.00 0.00 0.00 58 1017.2
20240613161548 81 307 0.0 3.5 0.00 0.00 0.00 55 1017.3
20240613160029 81 12 0.0 3.5 0.00 0.00 0.00 58 1017.3
20240613154524 80 171 0.0 4.3 0.00 0.00 0.00 53 1017.2
20240613153021 80 138 0.9 3.5 0.00 0.00 0.00 59 1017.4
20240613151518 79 107 0.9 5.2 0.00 0.00 0.00 62 1017.4
20240613150017 79 122 0.0 2.6 0.00 0.00 0.00 63 1017.6
20240613144529 78 326 0.0 4.3 0.00 0.00 0.00 67 1017.7
20240613143013 77 205 0.0 3.5 0.00 0.00 0.00 68 1017.7
20240613141512 77 158 0.9 2.6 0.00 0.00 0.00 68 1017.8
20240613140050 75 158 0.0 2.6 0.00 0.00 0.00 72 1018.1
20240613134605 74 86 0.9 4.3 0.00 0.00 0.00 71 1018.3
20240613133032 74 294 0.0 1.7 0.00 0.00 0.00 75 1018.3